Jackson, MI

1:34 PM EDT on September 29, 2016 (GMT -0400)
Jackson County-Reynolds

Weather History for KJXN - January, 2013

Change the Weather History Date:

Saturday, January 19, 2013

  Actual Average Record
Temperature  
Mean Temperature 42 °F 23 °F  
Max Temperature 48 °F 31 °F 54 °F (1949)
Min Temperature 36 °F 16 °F -9 °F (1997)
Degree Days  
Heating Degree Days 23 42  
Month to date heating degree days 662 787  
Since 1 July heating degree days 3052 3335  
Cooling Degree Days 0 0  
Month to date cooling degree days 0 0  
Year to date cooling degree days 0 0  
Moisture  
Dew Point 28 °F    
Average Humidity 60    
Maximum Humidity 70    
Minimum Humidity 49    
Precipitation  
Precipitation 0.00 in 0.05 in 0.92 in (1952)
Month to date precipitation 0.98 1.01  
Year to date precipitation 0.98 1.01  
Sea Level Pressure  
Sea Level Pressure 29.83 in    
Wind  
Wind Speed 18 mph (SW)    
Max Wind Speed 26 mph    
Max Gust Speed 37 mph    
Visibility 10 miles    
Events      
T = Trace of Precipitation, MM = Missing Value Source: NWS Daily Summary

Daily Weather History Graph

Daily Weather History Graph

Search for Another Location

Airport or City:

Trip Planner

Search our weather history database for the weather conditions in past years. The results will help you decide how hot, cold, wet, or windy it might be!

Date:

Astronomy

Jan. 19, 2013 Rise Set
Actual Time 8:01 AM EST 5:35 PM EST
Civil Twilight 7:31 AM EST 6:06 PM EST
Nautical Twilight 6:56 AM EST 6:41 PM EST
Astronomical Twilight 6:23 AM EST 7:14 PM EST
Moon 12:02 PM EST (1/19) 1:33 AM EST (1/19)
Length of Visible Light 10h 35m
Length of Day
9h 34m
First Quarter, 57% of the Moon is Illuminated
Jan 19
First Quarter
Jan 26
Full
Feb 3
Last Quarter
Feb 10
New
Feb 17
First Quarter

Hourly Weather History & Observations

Time (EST) Temp. Windchill Dew Point Humidity Pressure Visibility Wind Dir Wind Speed Gust Speed Precip Events Conditions
12:56 AM 37.0 °F 27.7 °F 21.9 °F 54% 29.96 in 10.0 mi SW 16.1 mph 27.6 mph N/A   Clear
1:56 AM 37.9 °F 28.5 °F 23.0 °F 55% 29.94 in 10.0 mi SW 17.3 mph 27.6 mph N/A   Clear
2:56 AM 39.0 °F 29.6 °F 24.1 °F 55% 29.94 in 10.0 mi WSW 18.4 mph 28.8 mph N/A   Clear
3:56 AM 39.0 °F 29.6 °F 24.1 °F 55% 29.95 in 10.0 mi WSW 18.4 mph 26.5 mph N/A   Clear
4:56 AM 37.9 °F 29.2 °F 25.0 °F 60% 29.93 in 10.0 mi SW 15.0 mph 28.8 mph N/A   Clear
5:56 AM 37.0 °F 27.7 °F 25.0 °F 62% 29.94 in 10.0 mi WSW 16.1 mph 25.3 mph N/A   Clear
6:56 AM 37.0 °F 28.1 °F 26.1 °F 65% 29.95 in 10.0 mi SW 15.0 mph 25.3 mph N/A   Clear
7:56 AM 37.0 °F 27.4 °F 26.1 °F 65% 29.95 in 10.0 mi SW 17.3 mph 24.2 mph N/A   Clear
8:56 AM 37.0 °F 27.7 °F 26.1 °F 65% 29.95 in 10.0 mi SW 16.1 mph 24.2 mph N/A   Clear
9:56 AM 39.9 °F 31.1 °F 27.0 °F 60% 29.95 in 10.0 mi SW 17.3 mph 26.5 mph N/A   Clear
10:56 AM 43.0 °F 34.8 °F 28.0 °F 56% 29.94 in 10.0 mi SW 18.4 mph 23.0 mph N/A   Clear
11:56 AM 44.1 °F 36.2 °F 28.0 °F 53% 29.89 in 10.0 mi SW 18.4 mph 26.5 mph N/A   Clear
12:56 PM 46.0 °F 38.8 °F 28.9 °F 51% 29.83 in 10.0 mi SSW 18.4 mph 24.2 mph N/A   Clear
1:56 PM 46.9 °F - 28.9 °F 50% 29.80 in 10.0 mi SW 20.7 mph 28.8 mph N/A   Clear
2:56 PM 46.9 °F - 28.9 °F 50% 29.77 in 10.0 mi SW 21.9 mph 27.6 mph N/A   Clear
3:56 PM 46.0 °F 39.3 °F 28.9 °F 51% 29.75 in 10.0 mi SW 16.1 mph - N/A   Clear
4:56 PM 45.0 °F 39.3 °F 30.0 °F 56% 29.77 in 10.0 mi SW 11.5 mph 18.4 mph N/A   Overcast
5:56 PM 45.0 °F 36.4 °F 30.9 °F 58% 29.70 in 10.0 mi SSW 23.0 mph 33.4 mph N/A   Overcast
6:56 PM 44.1 °F 36.5 °F 30.9 °F 60% 29.73 in 10.0 mi SW 17.3 mph 24.2 mph N/A   Mostly Cloudy
7:56 PM 44.1 °F 35.7 °F 32.0 °F 63% 29.69 in 10.0 mi SW 20.7 mph 29.9 mph N/A   Clear
8:56 PM 44.1 °F 35.7 °F 33.1 °F 65% 29.66 in 10.0 mi WSW 20.7 mph 34.5 mph N/A   Mostly Cloudy
9:56 PM 43.0 °F 34.2 °F 33.1 °F 68% 29.65 in 10.0 mi WSW 20.7 mph 31.1 mph N/A   Mostly Cloudy
10:56 PM 42.1 °F 33.6 °F 33.1 °F 70% 29.63 in 10.0 mi WSW 18.4 mph 29.9 mph N/A   Overcast
11:56 PM 43.0 °F 34.5 °F 30.9 °F 62% 29.61 in 10.0 mi West 19.6 mph 36.8 mph N/A   Overcast